Theta_e
301 302 303 305 308 312 316 319 323 326 327 326 325 324 323 322 322 320 319 319 317 317 318 317 317 318 318 318 319 319 317 317 313 316 310 307 303 301 298 298 296 296 295
298 299 299 300 301 302 304 307 312 316 322 325 325 325 324 324 324 322 321 320 319 318 317 317 317 318 318 319 319 318 318 318 316 313 308 303 303 300 300 297 294 293 293
296 297 297 298 298 299 299 301 304 307 310 315 320 323 324 324 324 323 323 322 321 320 320 319 319 319 318 318 318 317 318 317 316 314 307 300 296 295 291 291 291 291 292
293 293 293 294 296 297 297 298 300 302 303 306 310 315 319 322 323 323 323 323 322 322 322 321 321 320 319 318 317 317 316 315 313 312 302 296 294 288 289 289 287 287 287
290 291 291 293 293 294 294 295 296 297 299 302 305 309 312 315 319 320 321 322 322 321 321 321 320 316 307 314 317 317 315 313 309 308 292 289 289 286 290 288 289 286 286
286 287 289 290 290 291 292 292 293 294 295 297 299 302 304 308 307 305 308 319 320 319 319 320 320 302 302 302 304 306 313 313 307 306 303 299 292 289 288 288 287 286 286
283 285 286 287 287 287 288 289 290 291 293 294 295 297 299 302 302 302 300 312 317 319 319 319 318 315 303 312 303 303 303 305 308 307 303 301 297 292 290 287 287 287 287
281 283 284 283 283 284 285 286 287 289 290 291 292 294 296 298 298 299 299 307 313 316 318 319 317 316 307 310 310 306 308 305 305 304 307 303 303 297 297 293 291 286 284
279 280 280 280 279 281 281 283 284 285 286 288 290 291 291 293 295 296 298 304 307 309 313 317 317 315 303 300 305 300 297 293 294 297 298 297 297 296 292 289 286 287 283
276 276 277 277 278 278 279 280 283 284 285 286 287 289 289 290 293 295 297 299 302 304 307 309 295 307 298 297 305 298 293 292 289 288 290 293 294 293 292 294 289 288 282
274 274 275 275 276 277 279 280 279 280 282 284 286 287 288 289 291 294 296 297 299 300 303 304 299 296 297 297 301 298 298 289 290 288 288 287 287 288 289 288 291 291 285
272 272 272 272 273 274 274 276 278 281 281 281 282 285 288 289 290 292 294 296 298 297 299 303 299 294 295 296 297 299 295 291 288 288 287 287 286 286 285 285 285 284 284
270 269 269 271 273 274 274 275 277 278 279 280 282 284 286 289 290 292 294 295 295 295 297 301 298 293 294 295 296 294 289 289 287 286 287 286 287 286 283 282 282 282 282
267 268 269 270 271 273 275 276 276 276 278 280 282 282 285 287 289 291 292 292 290 292 294 296 295 293 294 295 290 290 290 289 288 288 287 286 284 283 283 282 281 281 281
267 267 267 268 267 268 270 271 272 274 276 276 278 280 281 283 286 290 291 291 291 291 289 287 288 289 289 288 288 288 287 287 287 287 286 283 283 283 282 282 282 281 280
264 265 265 266 266 267 267 268 273 275 277 279 282 282 282 285 287 288 290 291 292 293 287 288 290 289 289 289 288 287 287 286 287 286 285 284 282 282 281 282 282 282 280
262 264 264 265 266 266 267 267 267 271 276 278 279 283 285 287 288 289 290 291 292 292 288 289 289 290 290 290 289 288 286 287 287 286 285 284 283 283 281 281 281 281 280
262 263 264 265 265 265 266 267 268 268 268 271 277 280 284 287 289 290 291 291 288 290 290 288 290 290 290 289 289 288 287 286 286 285 285 284 284 283 281 281 281 280 278
262 262 263 264 264 265 266 267 268 270 271 273 276 281 285 288 289 290 291 288 287 288 289 289 289 290 289 289 288 288 287 286 285 285 285 285 284 283 282 282 281 279 278
261 263 263 263 264 264 264 265 267 268 269 271 274 278 285 286 286 287 287 288 288 288 289 288 289 289 288 288 287 287 286 285 285 285 285 285 284 284 282 282 280 277 276
261 261 261 262 262 263 263 264 265 266 267 269 271 274 278 286 286 286 287 287 288 288 289 288 288 288 288 287 287 286 286 285 285 285 285 284 284 283 283 281 279 277 275
260 259 260 260 261 262 262 263 264 264 265 266 267 270 275 276 285 286 287 287 287 288 289 288 287 288 287 287 286 286 285 285 285 285 285 284 284 283 282 279 277 276 273
258 258 259 259 260 260 261 261 262 262 263 264 265 266 268 270 272 277 286 286 286 287 287 287 287 287 287 287 287 287 285 285 285 285 284 283 283 281 279 278 276 273 272
257 257 258 258 258 259 259 259 260 261 261 262 263 264 265 266 268 270 272 280 285 285 285 285 285 286 286 286 286 286 286 287 286 285 285 283 282 279 278 276 274 272 271
255 256 256 256 257 257 258 258 259 259 260 260 261 262 263 264 265 266 269 272 273 283 285 285 285 285 285 285 285 285 285 284 285 285 284 282 279 277 275 274 272 270 268
253 254 254 255 256 256 256 257 257 258 258 259 260 260 261 262 263 264 266 267 268 271 272 281 284 285 285 285 285 284 284 284 284 283 281 278 276 274 273 271 269 268 266
Wind_Speed
11 7 7 8 8 8 8 9 10 12 12 12 12 13 14 15 15 15 16 16 17 17 16 17 18 17 12 11 11 12 12 11 13 8 5 6 4 7 5 5 6 5 4
11 10 10 8 7 7 7 9 11 11 11 12 12 13 14 15 15 17 17 16 18 19 19 19 20 13 17 15 12 15 14 13 11 14 6 4 5 4 5 7 4 3 4
10 9 10 11 11 11 11 12 12 11 11 11 11 13 13 15 16 16 17 18 18 19 18 18 18 18 17 14 15 14 12 11 11 9 5 2 2 3 3 2 3 3 2
12 10 8 9 10 10 11 11 12 12 12 12 12 13 12 14 16 18 17 18 19 18 18 18 18 19 20 18 16 16 13 12 11 10 5 4 3 2 2 4 2 2 2
13 11 11 11 9 10 10 11 12 12 12 12 13 14 14 14 12 16 17 16 18 18 18 18 18 18 21 20 13 15 15 13 10 11 4 3 4 3 7 4 3 3 2
13 13 13 13 13 12 12 12 12 12 13 13 13 14 15 12 18 19 17 16 17 17 19 19 19 16 18 22 22 20 19 16 14 11 10 9 7 5 4 5 4 4 3
13 14 13 13 15 15 15 15 14 14 13 14 14 13 15 16 18 19 18 14 17 20 20 19 17 13 15 18 23 25 22 25 22 17 13 12 9 9 9 6 5 4 4
13 13 12 15 18 17 17 16 16 15 15 15 16 16 17 16 20 19 17 16 18 21 21 22 20 19 16 19 17 18 19 16 16 11 14 12 10 12 13 10 11 6 5
16 17 18 19 21 20 20 20 17 17 17 17 16 18 17 21 23 22 16 14 16 20 20 21 20 20 19 23 19 18 15 8 4 5 6 10 12 18 14 9 7 9 3
18 19 19 19 19 21 21 21 17 16 19 16 21 18 20 22 26 24 18 12 17 15 17 19 18 19 19 27 23 17 16 15 12 8 7 7 11 13 21 13 12 12 5
16 17 17 17 19 19 20 18 21 21 21 20 20 21 21 20 23 26 21 14 15 14 14 13 11 19 20 30 31 18 20 14 16 11 9 8 7 9 8 5 11 10 7
18 18 18 18 15 15 21 19 19 19 20 22 22 22 17 18 21 23 24 26 24 16 17 13 12 19 24 29 25 24 21 21 11 10 10 9 9 8 6 5 5 5 4
17 18 18 17 16 16 17 20 16 16 17 20 17 18 19 14 14 21 23 27 25 19 17 19 17 22 28 26 29 23 24 10 12 11 9 8 7 7 9 7 6 8 8
18 18 17 17 17 16 13 13 15 16 15 16 17 19 19 19 16 13 12 8 15 17 21 18 15 18 22 18 14 19 12 12 12 12 11 9 8 9 7 7 6 8 6
17 17 17 14 16 17 14 13 15 17 18 17 18 19 20 21 21 24 18 11 8 11 9 5 6 10 11 10 12 13 11 11 12 12 10 12 10 10 9 10 9 10 7
16 13 13 14 14 14 16 18 24 33 37 39 40 33 23 37 44 40 37 32 27 21 8 11 14 13 15 15 16 15 14 16 14 14 12 13 13 13 12 10 10 11 11
15 16 13 14 14 15 16 17 22 21 35 37 39 39 41 39 40 40 37 33 29 22 13 14 16 15 15 14 15 15 16 14 15 14 14 14 13 14 16 13 12 11 10
16 19 13 13 13 14 16 18 17 20 23 21 25 33 34 37 36 36 34 28 17 21 17 16 17 16 14 14 14 14 13 13 15 15 15 15 15 16 16 16 15 14 12
14 13 14 14 14 16 16 17 17 18 19 22 21 24 25 30 32 34 33 16 15 15 15 16 15 14 13 13 13 13 15 15 16 15 15 16 16 16 16 15 15 18 15
14 20 18 13 14 14 13 17 17 17 18 18 18 21 19 17 14 13 12 14 14 14 13 14 14 12 12 12 13 13 13 14 15 14 15 15 15 16 16 16 15 15 14
12 14 18 13 13 14 14 15 17 16 17 17 18 20 44 20 17 14 12 12 13 13 13 12 12 11 11 12 13 14 16 15 16 16 15 15 16 15 15 14 13 15 14
12 13 13 13 13 13 14 15 16 16 17 18 18 20 38 20 14 13 13 11 11 11 10 10 10 10 12 13 14 15 16 17 17 17 16 16 15 15 14 15 15 14 14
13 13 13 13 13 16 14 14 15 16 17 18 17 17 17 17 16 18 13 10 9 9 8 8 9 10 11 12 13 15 16 17 18 18 19 18 16 15 16 16 16 16 15
12 13 13 13 12 13 13 15 15 19 19 17 17 16 16 17 17 18 15 16 8 8 7 7 8 12 11 12 11 12 12 13 13 17 22 18 18 18 16 16 16 19 15
11 12 12 12 12 12 14 14 14 15 16 16 16 16 17 17 17 17 16 15 14 14 9 9 8 11 14 17 15 15 14 17 16 18 15 18 19 22 18 16 17 15 16
12 12 12 11 11 12 12 13 14 15 16 16 16 16 17 17 17 17 16 16 14 13 15 9 7 13 15 14 16 16 16 19 18 21 16 16 18 16 16 19 24 15 18
Wind_Direction
26 18 13 2 350 343 332 314 298 280 264 254 243 239 236 233 228 228 227 228 226 229 225 225 229 228 228 227 226 225 220 215 236 239 202 182 160 155 160 151 171 153 145
11 12 9 2 352 349 337 325 321 310 301 285 262 256 251 247 238 233 234 231 231 231 229 226 228 223 226 223 223 224 225 219 221 236 189 182 182 182 174 161 159 155 161
4 359 358 357 354 348 341 334 331 325 316 301 290 272 263 261 257 244 239 240 239 238 237 235 233 224 225 220 218 220 222 221 214 223 200 139 127 144 118 74 155 166 188
354 355 344 345 338 334 332 329 328 323 316 310 303 294 287 274 263 259 245 246 245 244 242 239 239 233 231 224 222 218 215 217 209 212 192 165 154 164 120 144 196 196 173
344 340 336 330 325 327 327 325 323 319 312 304 298 294 289 278 267 262 257 250 251 250 245 241 236 234 231 225 220 219 212 213 208 206 173 150 159 157 187 162 163 139 205
335 329 326 329 332 328 323 319 313 306 304 302 300 292 287 278 269 262 253 259 256 250 249 245 238 222 219 216 217 216 208 204 206 203 203 202 184 169 145 159 138 150 200
326 326 327 331 330 326 320 315 310 303 299 293 288 282 276 273 267 261 252 258 260 254 249 245 239 232 214 215 218 212 207 207 202 196 200 203 187 172 144 150 159 162 171
327 328 331 334 325 321 316 311 309 304 301 296 291 286 285 284 282 277 268 262 259 257 253 250 242 231 212 212 215 216 219 212 205 196 209 196 197 176 181 174 171 123 68
336 336 336 331 322 319 314 311 309 303 299 294 287 284 278 279 278 275 270 270 261 258 256 251 245 236 209 202 203 202 197 192 122 148 146 149 157 163 153 127 148 152 147
335 330 327 321 316 312 308 305 304 300 295 293 288 279 274 273 273 270 266 264 262 258 256 254 230 224 197 196 206 199 195 190 159 142 144 146 155 166 168 178 163 178 136
321 317 317 316 312 305 304 308 303 296 289 287 287 284 278 270 274 267 259 254 255 258 252 248 232 214 207 197 204 201 202 161 160 155 145 137 149 158 177 170 176 172 154
320 317 314 308 302 299 294 296 292 293 297 292 290 286 278 274 265 266 254 243 253 255 253 249 233 204 203 201 198 204 176 158 157 158 158 163 168 164 163 148 120 102 77
313 306 304 301 298 294 293 294 292 292 289 289 287 285 286 283 276 269 259 263 258 253 255 256 230 200 204 202 200 180 157 159 154 157 164 168 172 146 131 114 102 104 90
309 306 307 304 301 298 296 296 292 288 288 285 283 282 285 285 281 279 276 257 253 254 261 259 229 204 202 198 181 173 170 169 168 164 163 150 132 149 159 147 144 142 120
314 313 310 308 308 303 298 296 287 282 278 279 275 279 279 279 275 281 282 281 260 252 251 226 200 191 187 185 183 182 165 162 168 157 159 158 156 164 164 158 152 153 152
310 310 312 314 314 307 303 298 285 288 288 282 277 270 271 268 276 276 273 270 267 241 216 226 233 210 199 194 189 183 180 174 171 155 166 167 166 170 164 167 162 171 166
310 313 317 313 309 311 307 302 304 301 292 288 286 280 271 267 270 272 270 266 260 232 224 226 232 223 214 202 197 186 184 178 165 162 168 172 170 169 166 169 173 170 166
319 314 311 314 311 308 303 299 297 297 301 299 290 283 277 273 270 269 264 263 255 230 228 228 235 229 215 205 198 190 180 170 172 168 171 172 175 172 174 175 177 172 162
317 314 316 313 309 308 306 301 298 297 294 297 297 287 276 268 267 262 258 253 250 237 230 229 228 231 220 203 193 188 180 175 174 172 176 178 179 177 180 181 173 170 162
319 312 315 311 312 311 313 306 304 305 302 299 298 302 291 284 272 263 250 247 246 238 232 226 223 229 208 199 189 182 179 176 171 178 180 180 179 179 179 177 171 162 163
311 315 313 309 311 313 312 312 308 305 307 306 310 303 317 285 279 269 260 247 242 239 234 225 219 221 206 196 190 187 182 180 176 177 180 181 178 177 176 172 163 161 152
320 312 313 311 311 315 315 313 310 312 313 313 312 315 322 323 293 275 263 252 244 238 235 229 221 212 202 198 193 191 188 182 180 177 179 178 178 175 170 165 160 157 150
311 308 311 310 313 315 315 316 317 319 318 318 318 320 324 325 322 326 285 261 252 244 235 228 224 218 207 203 200 194 193 190 187 177 176 174 173 171 168 164 157 154 155
309 308 309 310 317 319 320 320 322 324 321 319 324 324 326 325 326 327 327 329 277 248 234 223 216 213 205 202 202 204 205 199 189 184 176 174 169 162 162 157 154 153 149
317 310 313 317 320 321 321 321 320 323 322 323 328 329 329 331 330 331 332 335 340 307 240 222 218 214 208 202 198 192 189 182 178 173 170 166 161 161 158 147 145 139 146
316 312 315 319 317 321 323 321 323 323 324 328 332 333 332 332 334 335 337 335 338 332 340 320 252 217 207 204 197 188 181 177 174 169 159 153 154 152 149 141 141 141 146